Flag for Sweden Weather past 2 weeks in Karlstad, Sweden

Now
64 °F

Mild.


Feels Like: 64 °F
Forecast: 57 / 64 °F
Wind: 10 mph from Southwest

Location: Karlstad

Current Time: Jul 7, 2015 at 8:07:08 PM

Latest Report: Jul 7, 2015 at 7:20 PM


Visibility: N/A

Pressure: 29.56 "Hg

Humidity: 60%

Dew point: 50 °F

Location of KarlstadLocation

Historic Weather in Karlstad — Graph

°F

Karlstad temperature yesterday

Maximum temperature yesterday: 70 °F (at 12:20 AM)
Minimum temperature yesterday: 55 °F (at 11:50 PM)
Average temperature yesterday: 63 °F

Past Weeks' High & Low Weather Summary

 TemperatureHumidityPressure
High81 °F (Jul 2, 5:50 PM)100% (Jun 23, 12:50 AM)30.36 "Hg (Jun 23, 12:50 AM)
Low45 °F (Jun 23, 3:20 AM)18% (Jul 5, 3:20 PM)29.56 "Hg (Jul 7, 12:50 AM)
Average62 °F74%29.95 "Hg
* Reported Jun 22 7:20 PM — Jul 7 7:20 PM, Karlstad, Weather by CustomWeather, © 2015

Note: Actual official high and low records may vary slightly from our data, if they occured in-between our weather recording intervals... More about our weather records

Advertising

Karlstad weather history for previous 24 hours

 ConditionsComfort  
Time TempWeatherWind HumidityBarometerVisibility
7:20 PM
Tue, Jul 7
64 °FMild.10 mph60%29.56 "HgN/A
6:20 PM68 °FMild.14 mph53%29.56 "HgN/A
5:50 PM68 °FPassing clouds.12 mph53%29.56 "HgN/A
5:20 PM68 °FScattered clouds.12 mph53%29.59 "HgN/A
4:50 PM68 °FPartly sunny.12 mph53%29.59 "HgN/A
4:20 PM68 °FScattered clouds.12 mph53%29.59 "HgN/A
3:50 PM70 °FPassing clouds.12 mph50%29.59 "HgN/A
3:20 PM68 °FScattered clouds.14 mph53%29.59 "HgN/A
2:50 PM66 °FScattered clouds.14 mph56%29.59 "HgN/A
2:20 PM66 °FScattered clouds.15 mph56%29.59 "HgN/A
1:50 PM66 °FPartly sunny.16 mph60%29.59 "HgN/A
1:20 PM64 °FPartly sunny.15 mph60%29.59 "HgN/A
12:50 PM66 °FScattered clouds.16 mph52%29.59 "HgN/A
12:20 PM64 °FScattered clouds.13 mph56%29.59 "HgN/A
11:50 AM66 °FScattered clouds.13 mph52%29.59 "HgN/A
11:20 AM66 °FPartly sunny.13 mph56%29.59 "HgN/A
10:50 AM63 °FScattered clouds.10 mph59%29.59 "HgN/A
10:20 AM63 °FMild.13 mph59%29.56 "HgN/A
9:50 AM63 °FPassing clouds.15 mph64%29.56 "HgN/A
9:20 AM63 °FMild.14 mph64%29.56 "HgN/A
8:50 AM61 °FCool.13 mph63%29.56 "HgN/A
8:20 AM61 °FSunny.14 mph68%29.56 "Hg10 mi
7:50 AM59 °FSunny.14 mph68%29.56 "Hg10 mi
7:20 AM57 °FSunny.13 mph72%29.56 "Hg10 mi
6:50 AM57 °FSunny.17 mph72%29.56 "Hg10 mi
6:20 AM54 °FSunny.14 mph82%29.56 "Hg10 mi
5:50 AM54 °FSunny.14 mph82%29.56 "Hg10 mi
5:20 AM55 °FCool.15 mph77%29.56 "HgN/A
4:50 AM55 °FCool.15 mph77%29.56 "HgN/A
4:20 AM55 °FPassing clouds.16 mph77%29.56 "HgN/A
3:50 AM55 °FPassing clouds.14 mph77%29.56 "HgN/A
3:20 AM55 °FOvercast.15 mph77%29.56 "HgN/A
2:50 AM55 °FPassing clouds.15 mph82%29.56 "HgN/A
2:20 AM55 °FLight rain. Passing clouds.14 mph88%29.56 "HgN/A
1:20 AM55 °FPassing clouds.13 mph88%29.56 "HgN/A
12:50 AM55 °FPassing clouds.13 mph88%29.56 "HgN/A
12:20 AM55 °FLight rain. Overcast.13 mph88%29.59 "HgN/A
11:50 PM
Mon, Jul 6
55 °FLight rain. Passing clouds.14 mph94%29.59 "HgN/A
11:20 PM57 °FLight rain. Partly sunny.14 mph88%29.59 "HgN/A
10:50 PM57 °FDrizzle. Partly sunny.15 mph82%29.59 "HgN/A
10:20 PM57 °FDrizzle. Mostly cloudy.13 mph88%29.62 "HgN/A
9:50 PM59 °FCloudy.16 mph77%29.62 "HgN/A
9:20 PM59 °FScattered clouds.13 mph82%29.62 "HgN/A
8:50 PM61 °FRain showers. Scattered clouds.15 mph72%29.62 "HgN/A
8:20 PM61 °FPartly sunny.16 mph72%29.62 "HgN/A
Weather by CustomWeather, © 2015

See weather overviewHow to use our weather pages